User: anonymous   Login
Location: Newark
(35.5300°N, 14.3000°E)
Time: 11:41:38
(UTC+00:00)
Language:

Tiros 1 - Orbit

View from above orbital plane
View from above orbital plane
View from above satellite
View from above satellite

Ground track
Ground track

The orbit data is extracted from the following two-line orbital elements,

1    29U 60002B   19325.86368162 -.00000125 +00000-0 +12449-4 0  9992
2    29 048.3788 212.9978 0023758 059.2488 301.0759 14.74329406187764
Epoch (UTC): 21 November 2019 20:43:42
Eccentricity: 0.0023758
inclination: 48.3788°
perigee height: 630 km
apogee height: 664 km
right ascension of ascending node: 212.9978°
argument of perigee: 59.2488°
revolutions per day: 14.74329406
mean anomaly at epoch: 301.0759°
orbit number at epoch: 18776

The dashed part of the orbit path shows where the satellite is in the earth's shadow,  

DLR